Location: Beetenbrück
(52.8113°N, 9.5946°E)
Time: 22:20:26
(UTC+00:00)

SL-08 R/B - Pass Details

Date: 14 April 2026
Orbit: 949 x 1018 km, 82.9° (Epoch: 12 May)

Event Time Altitude Azimuth Distance (km) Brightness Sun altitude
Exits shadow 20:47:22 29° 169° (S) 1,693 5.3 -19.4°
Maximum altitude 20:50:38 67° 95° (E) 1,032 4.4 -19.7°
Drops below altitude 10° 20:56:42 10° 14° (NNE) 2,687 7.3 -20.3°
Sets 20:59:12 0° 12° (NNE) 3,636 8.1 -20.5°
